Kosmos-2477

operational
NORAD ID: 37869 Int'l Des: 2011-064 Owner: KVR/IACG Country: RU Constellation: GLONASS
MEOCIRCULAR

关于 Kosmos-2477

正在加载描述...

实时位置

正在加载3D地球...

即将过境

高度历史

Altitude vs Time

uPlot chart will show altitude changes over time

两行轨道根数

1 37869U 11064C 26034.17122147 .00000005 00000-0 00000+0 0 9999
2 37869 65.2041 77.4957 0027852 252.5031 195.5600 2.13101448110916
Epoch: Feb 3, 2026 • Age: 12 hours

当前状态

高度 19181.6 km
速度 3.95 km/s
星下点 49.44°N, 156.21°W
发射日期 Nov 4, 2011
运行时间 14.2 years
类型 other

技术详情

分类 Payload
质量 1450.00 kg
干质量 1200.00 kg
总质量 1450.00 kg
长度 4.00 m
直径 1.50 m
跨度 7.80 m
形状 Cyl + Ant + 2 Pan
制造商 RESH
平台类型 Uragan
阶段状态 In Orbit
所有者/国家 KVR/IACG/RU

大型星座

Loading constellations...